Hourly Weather Roundup
Issued by NWS Central Illinois

Home | Current Version | Previous Version | Text Only | Print | Product List | Glossary On
Versions: 1 2 3 4 5 6 7 8 9 10 11 12 13 14 15 16 17 18 19 20 21 22 23 24 25 26 27 28 29 30 31 32 33 34 35 36 37 38 39 40 41 42 43 44 45 46 47 48 49 50
000
NZUS43 KILX 122210
HWRILX

Area Weather Roundup
National Weather Service Lincoln IL
400 PM CST TUE DEC 12 2017

NOTE:  "FAIR" indicates few or no clouds below 12,000 feet, with
       no sigificant weather and/or obstructions to visibility.


CITY           SKY/WX    TMP DP  RH WIND       PRES   REMARKS
Bloomington    MOCLDY    27   5  39 W17       30.06F WCI  14
Champaign      CLEAR     28   3  34 NW15      30.07S WCI  16
Danville       PTCLDY    24   6  46 NW10      30.03S WCI  13
Decatur        CLEAR     28   6  39 NW10      30.10R WCI  19
Effingham      CLEAR     31   6  35 W13       30.13R WCI  21
Flora          CLEAR     33   8  35 NW14G20   30.12S WCI  23
Galesburg      CLEAR     28   8  42 W12       30.10F WCI  18
Jacksonville   CLEAR     31   0  27 W10       30.13S WCI  22
Lacon          PTCLDY    26   3  36 NW9       30.08S WCI  17
Lawrenceville  CLEAR     31   8  38 NW16G23   30.10S WCI  20
Litchfield     CLEAR     31   4  31 W10       30.12F WCI  22
$$


CITY           SKY/WX    TMP DP  RH WIND       PRES   REMARKS
Lincoln        CLEAR     29   6  36 NW5       30.10F WCI  24
Macomb         CLEAR     29   4  33 W9        30.13F WCI  21
Mattoon        CLEAR     28   4  35 NW16      30.07F WCI  16
Mt Carmel AP   CLEAR     30   4  32 NW14      30.10S WCI  20
Olney-Noble AP CLEAR     30   2  29 NW12      30.12S WCI  21
Paris AP       CLEAR     27   7  42 NW14G21   30.07F WCI  16
Peoria         CLEAR     28   2  32 W7        30.10F WCI  21
Pontiac        CLOUDY    24   4  41 NW10      30.08S WCI  14
Rantoul        CLEAR     29   4  35 NW15      30.06F WCI  17
Robinson       CLEAR     29   5  35 NW14G20   30.11R WCI  18
Springfield    CLEAR     30   3  31 W10       30.12F WCI  21
Taylorville    CLEAR     29   3  32 W12       30.11F WCI  20
$$

...REGIONAL REPORTS...


CITY           SKY/WX    TMP DP  RH WIND       PRES   REMARKS
Chicago O`Hare PTCLDY    20   8  60 W10       30.02F WCI   9
Kankakee       PTCLDY    22   8  55 NW10      30.07R WCI  11
Moline         CLEAR     28   3  34 W10       30.10S WCI  19
Mount Sterling CLEAR     30   1  29 W8        30.11F WCI  23
Mount Vernon   CLEAR     33   6  32 VRB6      30.14R WCI  28
Pittsfield     CLEAR     32   1  26 W8        30.14S WCI  25
Quincy         CLEAR     31   1  28 W12       30.12F WCI  22
Rockford       CLOUDY    20   9  62 W8        30.05F WCI  10
$$


CITY           SKY/WX    TMP DP  RH WIND       PRES   REMARKS
Burlington     CLEAR     30   2  30 W9        30.10F WCI  22
Cedar Rapids   CLOUDY    26   4  38 W10       30.07F WCI  16
Des Moines     PTCLDY    33  16  49 W8        30.08F WCI  26
Kirksville     CLEAR     32   8  36 W8        30.13F WCI  25
Ottumwa        CLOUDY    31   2  29 W12       30.10F WCI  22
St Louis       MOCLDY    35   2  24 W14       30.15S WCI  26
$$


CITY           SKY/WX    TMP DP  RH WIND       PRES   REMARKS
Terre Haute    CLEAR     27   5  39 NW10      30.08R WCI  17
Evansville     CLEAR     32   9  38 NW8G18    30.11S WCI  25
Indianapolis   PTCLDY    25   7  46 W21G26    30.02R WCI  11
Lafayette      CLEAR     23   8  52 NW13G22   30.04R WCI  11
Madison        PTCLDY    18   0  45 NW6       30.01F WCI  10
Milwaukee      PTCLDY    19   3  49 NW12      30.01S WCI   7
$$






USA.gov is the U.S. government's official web portal to all federal, state and local government web resources and services.